Year,Month,Day,Hour,Minute,Value (Times are PST for windspeed in km/hr)
2021,07,07,00,00,0.00
2021,07,07,00,01,0.00
2021,07,07,00,02,0.00
2021,07,07,00,03,0.00
2021,07,07,00,04,0.00
2021,07,07,00,05,0.00
2021,07,07,00,06,0.00
2021,07,07,00,07,0.00
2021,07,07,00,08,0.00
2021,07,07,00,09,0.40
2021,07,07,00,10,0.50
2021,07,07,00,11,0.20
2021,07,07,00,12,0.00
2021,07,07,00,13,0.00
2021,07,07,00,14,0.00
2021,07,07,00,15,0.00
2021,07,07,00,16,0.00
2021,07,07,00,17,0.00
2021,07,07,00,18,0.00
2021,07,07,00,19,0.00
2021,07,07,00,20,0.50
2021,07,07,00,21,0.10
2021,07,07,00,22,0.00
2021,07,07,00,23,0.00
2021,07,07,00,24,0.00
2021,07,07,00,25,0.00
2021,07,07,00,26,0.00
2021,07,07,00,27,0.00
2021,07,07,00,28,0.00
2021,07,07,00,29,0.00
2021,07,07,00,30,0.00
2021,07,07,00,31,0.00
2021,07,07,00,32,0.00
2021,07,07,00,33,0.00
2021,07,07,00,34,0.00
2021,07,07,00,35,0.00
2021,07,07,00,36,0.00
2021,07,07,00,37,0.10
2021,07,07,00,38,0.00
2021,07,07,00,39,0.10
2021,07,07,00,40,0.00
2021,07,07,00,41,0.00
2021,07,07,00,42,0.00
2021,07,07,00,43,0.00
2021,07,07,00,44,0.00
2021,07,07,00,45,0.00
2021,07,07,00,46,0.00
2021,07,07,00,47,0.00
2021,07,07,00,48,0.00
2021,07,07,00,49,0.00
2021,07,07,00,50,0.10
2021,07,07,00,51,0.00
2021,07,07,00,52,0.00
2021,07,07,00,53,0.00
2021,07,07,00,54,0.00
2021,07,07,00,55,0.00
2021,07,07,00,56,0.00
2021,07,07,00,57,0.00
2021,07,07,00,58,0.00
2021,07,07,00,59,0.00
2021,07,07,01,00,0.00
2021,07,07,01,01,0.00
2021,07,07,01,02,0.00
2021,07,07,01,03,0.00
2021,07,07,01,04,0.00
2021,07,07,01,05,0.00
2021,07,07,01,06,0.00
2021,07,07,01,07,0.00
2021,07,07,01,08,0.00
2021,07,07,01,09,0.00
2021,07,07,01,10,0.00
2021,07,07,01,11,0.00
2021,07,07,01,12,0.00
2021,07,07,01,13,0.00
2021,07,07,01,14,0.10
2021,07,07,01,15,0.10
2021,07,07,01,16,0.00
2021,07,07,01,17,0.00
2021,07,07,01,18,0.00
2021,07,07,01,19,0.00
2021,07,07,01,20,0.00
2021,07,07,01,21,0.00
2021,07,07,01,22,0.00
2021,07,07,01,23,0.00
2021,07,07,01,24,0.00
2021,07,07,01,25,0.00
2021,07,07,01,26,0.00
2021,07,07,01,27,0.00
2021,07,07,01,28,0.00
2021,07,07,01,29,0.00
2021,07,07,01,30,0.00
2021,07,07,01,31,0.30
2021,07,07,01,32,0.20
2021,07,07,01,33,0.00
2021,07,07,01,34,0.10
2021,07,07,01,35,0.00
2021,07,07,01,36,0.00
2021,07,07,01,37,0.00
2021,07,07,01,38,0.00
2021,07,07,01,39,0.00
2021,07,07,01,40,0.00
2021,07,07,01,41,0.00
2021,07,07,01,42,0.00
2021,07,07,01,43,0.00
2021,07,07,01,44,0.20
2021,07,07,01,45,0.10
2021,07,07,01,46,0.10
2021,07,07,01,47,0.10
2021,07,07,01,48,0.00
2021,07,07,01,49,0.00
2021,07,07,01,50,0.00
2021,07,07,01,51,0.10
2021,07,07,01,52,0.00
2021,07,07,01,53,1.30
2021,07,07,01,54,1.10
2021,07,07,01,55,0.10
2021,07,07,01,56,1.50
2021,07,07,01,57,1.20
2021,07,07,01,58,0.70
2021,07,07,01,59,3.40
2021,07,07,02,00,1.50
2021,07,07,02,01,0.30
2021,07,07,02,02,0.60
2021,07,07,02,03,3.00
2021,07,07,02,04,2.20
2021,07,07,02,05,0.30
2021,07,07,02,06,0.60
2021,07,07,02,07,0.30
2021,07,07,02,08,0.10
2021,07,07,02,09,0.00
2021,07,07,02,10,0.00
2021,07,07,02,11,0.40
2021,07,07,02,12,0.60
2021,07,07,02,13,1.10
2021,07,07,02,14,1.20
2021,07,07,02,15,0.40
2021,07,07,02,16,0.80
2021,07,07,02,17,1.00
2021,07,07,02,18,0.00
2021,07,07,02,19,0.50
2021,07,07,02,20,3.40
2021,07,07,02,21,0.50
2021,07,07,02,22,0.00
2021,07,07,02,23,1.80
2021,07,07,02,24,2.60
2021,07,07,02,25,1.10
2021,07,07,02,26,0.20
2021,07,07,02,27,0.10
2021,07,07,02,28,0.00
2021,07,07,02,29,0.00
2021,07,07,02,30,0.00
2021,07,07,02,31,0.00
2021,07,07,02,32,0.00
2021,07,07,02,33,0.00
2021,07,07,02,34,0.00
2021,07,07,02,35,0.00
2021,07,07,02,36,0.00
2021,07,07,02,37,0.00
2021,07,07,02,38,0.00
2021,07,07,02,39,0.10
2021,07,07,02,40,0.70
2021,07,07,02,41,0.30
2021,07,07,02,42,2.40
2021,07,07,02,43,1.20
2021,07,07,02,44,0.70
2021,07,07,02,45,1.50
2021,07,07,02,46,0.80
2021,07,07,02,47,0.00
2021,07,07,02,48,0.40
2021,07,07,02,49,0.00
2021,07,07,02,50,0.10
2021,07,07,02,51,0.40
2021,07,07,02,52,1.40
2021,07,07,02,53,0.20
2021,07,07,02,54,0.00
2021,07,07,02,55,0.70
2021,07,07,02,56,1.40
2021,07,07,02,57,0.80
2021,07,07,02,58,0.90
2021,07,07,02,59,1.00
2021,07,07,03,00,0.10
2021,07,07,03,01,0.00
2021,07,07,03,02,1.10
2021,07,07,03,03,1.10
2021,07,07,03,04,0.00
2021,07,07,03,05,0.10
2021,07,07,03,06,0.00
2021,07,07,03,07,0.00
2021,07,07,03,08,0.00
2021,07,07,03,09,0.00
2021,07,07,03,10,0.20
2021,07,07,03,11,0.50
2021,07,07,03,12,0.00
2021,07,07,03,13,0.10
2021,07,07,03,14,0.00
2021,07,07,03,15,0.00
2021,07,07,03,16,0.50
2021,07,07,03,17,1.10
2021,07,07,03,18,0.10
2021,07,07,03,19,0.10
2021,07,07,03,20,0.20
2021,07,07,03,21,0.80
2021,07,07,03,22,0.40
2021,07,07,03,23,0.00
2021,07,07,03,24,0.00
2021,07,07,03,25,0.00
2021,07,07,03,26,0.00
2021,07,07,03,27,0.00
2021,07,07,03,28,0.00
2021,07,07,03,29,0.00
2021,07,07,03,30,0.00
2021,07,07,03,31,0.00
2021,07,07,03,32,0.00
2021,07,07,03,33,0.00
2021,07,07,03,34,0.00
2021,07,07,03,35,0.00
2021,07,07,03,36,0.10
2021,07,07,03,37,0.00
2021,07,07,03,38,0.00
2021,07,07,03,39,0.10
2021,07,07,03,40,0.30
2021,07,07,03,41,0.00
2021,07,07,03,42,0.00
2021,07,07,03,43,0.60
2021,07,07,03,44,0.60
2021,07,07,03,45,0.00
2021,07,07,03,46,0.00
2021,07,07,03,47,0.00
2021,07,07,03,48,0.10
2021,07,07,03,49,0.30
2021,07,07,03,50,0.50
2021,07,07,03,51,0.50
2021,07,07,03,52,0.30
2021,07,07,03,53,0.60
2021,07,07,03,54,0.10
2021,07,07,03,55,0.10
2021,07,07,03,56,0.00
2021,07,07,03,57,0.00
2021,07,07,03,58,0.00
2021,07,07,03,59,1.60
2021,07,07,04,00,1.20
2021,07,07,04,01,0.00
2021,07,07,04,02,0.00
2021,07,07,04,03,0.00
2021,07,07,04,04,0.00
2021,07,07,04,05,0.00
2021,07,07,04,06,0.00
2021,07,07,04,07,0.00
2021,07,07,04,08,0.00
2021,07,07,04,09,0.00
2021,07,07,04,10,0.00
2021,07,07,04,11,0.00
2021,07,07,04,12,0.00
2021,07,07,04,13,0.00
2021,07,07,04,14,0.00
2021,07,07,04,15,0.00
2021,07,07,04,16,0.50
2021,07,07,04,17,0.70
2021,07,07,04,18,0.00
2021,07,07,04,19,0.10
2021,07,07,04,20,0.00
2021,07,07,04,21,0.40
2021,07,07,04,22,0.30
2021,07,07,04,23,0.10
2021,07,07,04,24,0.20
2021,07,07,04,25,0.50
2021,07,07,04,26,0.00
2021,07,07,04,27,0.30
2021,07,07,04,28,0.10
2021,07,07,04,29,1.30
2021,07,07,04,30,0.30
2021,07,07,04,31,0.00
2021,07,07,04,32,1.20
2021,07,07,04,33,0.80
2021,07,07,04,34,0.40
2021,07,07,04,35,2.30
2021,07,07,04,36,0.10
2021,07,07,04,37,0.00
2021,07,07,04,38,0.90
2021,07,07,04,39,1.10
2021,07,07,04,40,0.00
2021,07,07,04,41,0.10
2021,07,07,04,42,0.00
2021,07,07,04,43,0.00
2021,07,07,04,44,0.00
2021,07,07,04,45,0.00
2021,07,07,04,46,0.00
2021,07,07,04,47,0.00
2021,07,07,04,48,0.00
2021,07,07,04,49,0.00
2021,07,07,04,50,0.00
2021,07,07,04,51,0.00
2021,07,07,04,52,0.00
2021,07,07,04,53,0.00
2021,07,07,04,54,0.00
2021,07,07,04,55,0.00
2021,07,07,04,56,0.00
2021,07,07,04,57,0.00
2021,07,07,04,58,0.00
2021,07,07,04,59,0.00
2021,07,07,05,00,0.00
2021,07,07,05,01,0.00
2021,07,07,05,02,0.00
2021,07,07,05,03,0.00
2021,07,07,05,04,1.30
2021,07,07,05,05,2.60
2021,07,07,05,06,2.30
2021,07,07,05,07,2.80
2021,07,07,05,08,4.00
2021,07,07,05,09,3.40
2021,07,07,05,10,2.70
2021,07,07,05,11,0.60
2021,07,07,05,12,0.00
2021,07,07,05,13,0.00
2021,07,07,05,14,0.20
2021,07,07,05,15,1.90
2021,07,07,05,16,1.20
2021,07,07,05,17,2.10
2021,07,07,05,18,1.00
2021,07,07,05,19,3.80
2021,07,07,05,20,1.90
2021,07,07,05,21,3.10
2021,07,07,05,22,3.90
2021,07,07,05,23,0.50
2021,07,07,05,24,1.60
2021,07,07,05,25,1.80
2021,07,07,05,26,2.00
2021,07,07,05,27,0.60
2021,07,07,05,28,1.80
2021,07,07,05,29,1.80
2021,07,07,05,30,1.30
2021,07,07,05,31,0.10
2021,07,07,05,32,1.10
2021,07,07,05,33,2.50
2021,07,07,05,34,1.40
2021,07,07,05,35,0.80
2021,07,07,05,36,2.60
2021,07,07,05,37,2.90
2021,07,07,05,38,1.60
2021,07,07,05,39,0.60
2021,07,07,05,40,0.00
2021,07,07,05,41,0.60
2021,07,07,05,42,0.50
2021,07,07,05,43,0.50
2021,07,07,05,44,0.00
2021,07,07,05,45,1.20
2021,07,07,05,46,1.70
2021,07,07,05,47,0.80
2021,07,07,05,48,3.90
2021,07,07,05,49,3.00
2021,07,07,05,50,1.40
2021,07,07,05,51,3.00
2021,07,07,05,52,3.40
2021,07,07,05,53,2.80
2021,07,07,05,54,1.20
2021,07,07,05,55,1.70
2021,07,07,05,56,1.50
2021,07,07,05,57,0.50
2021,07,07,05,58,2.20
2021,07,07,05,59,0.10
2021,07,07,06,00,0.30
2021,07,07,06,01,2.10
2021,07,07,06,02,2.10
2021,07,07,06,03,3.00
2021,07,07,06,04,0.70
2021,07,07,06,05,0.00
2021,07,07,06,06,1.80
2021,07,07,06,07,1.50
2021,07,07,06,08,0.00
2021,07,07,06,09,0.20
2021,07,07,06,10,0.00
2021,07,07,06,11,0.10
2021,07,07,06,12,1.70
2021,07,07,06,13,1.20
2021,07,07,06,14,0.20
2021,07,07,06,15,0.00
2021,07,07,06,16,0.00
2021,07,07,06,17,0.10
2021,07,07,06,18,0.20
2021,07,07,06,19,0.00
2021,07,07,06,20,0.00
2021,07,07,06,21,0.10
2021,07,07,06,22,1.50
2021,07,07,06,23,1.50
2021,07,07,06,24,2.20
2021,07,07,06,25,2.30
2021,07,07,06,26,0.70
2021,07,07,06,27,2.40
2021,07,07,06,28,3.10
2021,07,07,06,29,3.30
2021,07,07,06,30,2.70
2021,07,07,06,31,2.20
2021,07,07,06,32,4.30
2021,07,07,06,33,1.10
2021,07,07,06,34,0.70
2021,07,07,06,35,0.00
2021,07,07,06,36,0.00
2021,07,07,06,37,0.30
2021,07,07,06,38,0.30
2021,07,07,06,39,0.00
2021,07,07,06,40,0.00
2021,07,07,06,41,0.80
2021,07,07,06,42,0.00
2021,07,07,06,43,0.30
2021,07,07,06,44,0.00
2021,07,07,06,45,1.00
2021,07,07,06,46,3.30
2021,07,07,06,47,2.00
2021,07,07,06,48,0.00
2021,07,07,06,49,0.00
2021,07,07,06,50,0.00
2021,07,07,06,51,0.40
2021,07,07,06,52,1.80
2021,07,07,06,53,0.90
2021,07,07,06,54,1.00
2021,07,07,06,55,2.80
2021,07,07,06,56,3.40
2021,07,07,06,57,3.10
2021,07,07,06,58,3.00
2021,07,07,06,59,4.20
2021,07,07,07,00,4.40
2021,07,07,07,01,2.10
2021,07,07,07,02,4.30
2021,07,07,07,03,4.10
2021,07,07,07,04,4.20
2021,07,07,07,05,4.40
2021,07,07,07,06,5.50
2021,07,07,07,07,5.20
2021,07,07,07,08,1.50
2021,07,07,07,09,0.20
2021,07,07,07,10,0.30
2021,07,07,07,11,2.10
2021,07,07,07,12,3.90
2021,07,07,07,13,3.80
2021,07,07,07,14,3.90
2021,07,07,07,15,4.30
2021,07,07,07,16,4.40
2021,07,07,07,17,3.90
2021,07,07,07,18,4.70
2021,07,07,07,19,6.80
2021,07,07,07,20,6.70
2021,07,07,07,21,6.70
2021,07,07,07,22,8.10
2021,07,07,07,23,7.70
2021,07,07,07,24,6.10
2021,07,07,07,25,8.30
2021,07,07,07,26,9.00
2021,07,07,07,27,8.00
2021,07,07,07,28,10.10
2021,07,07,07,29,4.20
2021,07,07,07,30,4.60
2021,07,07,07,31,6.70
2021,07,07,07,32,6.50
2021,07,07,07,33,3.20
2021,07,07,07,34,5.70
2021,07,07,07,35,6.00
2021,07,07,07,36,3.10
2021,07,07,07,37,3.10
2021,07,07,07,38,2.50
2021,07,07,07,39,4.30
2021,07,07,07,40,4.10
2021,07,07,07,41,3.80
2021,07,07,07,42,2.60
2021,07,07,07,43,6.90
2021,07,07,07,44,7.80
2021,07,07,07,45,4.00
2021,07,07,07,46,3.00
2021,07,07,07,47,4.90
2021,07,07,07,48,1.20
2021,07,07,07,49,1.50
2021,07,07,07,50,2.80
2021,07,07,07,51,2.50
2021,07,07,07,52,1.80
2021,07,07,07,53,0.10
2021,07,07,07,54,0.20
2021,07,07,07,55,1.60
2021,07,07,07,56,0.60
2021,07,07,07,57,0.50
2021,07,07,07,58,0.10
2021,07,07,07,59,0.00
2021,07,07,08,00,0.00
2021,07,07,08,01,0.00
2021,07,07,08,02,0.00
2021,07,07,08,03,0.00
2021,07,07,08,04,0.00
2021,07,07,08,05,0.00
2021,07,07,08,06,0.10
2021,07,07,08,07,0.00
2021,07,07,08,08,0.10
2021,07,07,08,09,0.00
2021,07,07,08,10,0.00
2021,07,07,08,11,0.00
2021,07,07,08,12,0.00
2021,07,07,08,13,3.30
2021,07,07,08,14,5.00
2021,07,07,08,15,4.20
2021,07,07,08,16,3.20
2021,07,07,08,17,4.40
2021,07,07,08,18,5.10
2021,07,07,08,19,6.10
2021,07,07,08,20,8.10
2021,07,07,08,21,5.90
2021,07,07,08,22,7.50
2021,07,07,08,23,8.90
2021,07,07,08,24,8.80
2021,07,07,08,25,9.30
2021,07,07,08,26,7.00
2021,07,07,08,27,5.20
2021,07,07,08,28,2.90
2021,07,07,08,29,4.80
2021,07,07,08,30,2.00
2021,07,07,08,31,6.10
2021,07,07,08,32,7.40
2021,07,07,08,33,8.70
2021,07,07,08,34,6.50
2021,07,07,08,35,6.30
2021,07,07,08,36,7.60
2021,07,07,08,37,5.10
2021,07,07,08,38,5.40
2021,07,07,08,39,5.80
2021,07,07,08,40,6.80
2021,07,07,08,41,3.40
2021,07,07,08,42,3.40
2021,07,07,08,43,7.20
2021,07,07,08,44,4.30
2021,07,07,08,45,6.70
2021,07,07,08,46,5.30
2021,07,07,08,47,5.00
2021,07,07,08,48,5.20
2021,07,07,08,49,3.30
2021,07,07,08,50,3.50
2021,07,07,08,51,3.70
2021,07,07,08,52,7.30
2021,07,07,08,53,6.80
2021,07,07,08,54,8.60
2021,07,07,08,55,12.30
2021,07,07,08,56,10.00
2021,07,07,08,57,6.60
2021,07,07,08,58,4.90
2021,07,07,08,59,6.10
2021,07,07,09,00,4.10
2021,07,07,09,01,5.50
2021,07,07,09,02,6.10
2021,07,07,09,03,6.80
2021,07,07,09,04,4.40
2021,07,07,09,05,4.10
2021,07,07,09,06,2.20
2021,07,07,09,07,6.10
2021,07,07,09,08,5.60
2021,07,07,09,09,2.80
2021,07,07,09,10,4.30
2021,07,07,09,11,3.30
2021,07,07,09,12,6.10
2021,07,07,09,13,4.30
2021,07,07,09,14,5.80
2021,07,07,09,15,5.70
2021,07,07,09,16,9.50
2021,07,07,09,17,9.40
2021,07,07,09,18,8.60
2021,07,07,09,19,9.50
2021,07,07,09,20,9.50
2021,07,07,09,21,7.80
2021,07,07,09,22,7.10
2021,07,07,09,23,6.60
2021,07,07,09,24,4.30
2021,07,07,09,25,7.90
2021,07,07,09,26,5.60
2021,07,07,09,27,7.30
2021,07,07,09,28,7.00
2021,07,07,09,29,4.90
2021,07,07,09,30,5.40
2021,07,07,09,31,5.40
2021,07,07,09,32,3.60
2021,07,07,09,33,4.50
2021,07,07,09,34,4.70
2021,07,07,09,35,4.10
2021,07,07,09,36,8.50
2021,07,07,09,37,6.20
2021,07,07,09,38,3.60
2021,07,07,09,39,6.10
2021,07,07,09,40,5.30
2021,07,07,09,41,6.80
2021,07,07,09,42,7.10
2021,07,07,09,43,5.10
2021,07,07,09,44,5.40
2021,07,07,09,45,9.00
2021,07,07,09,46,7.70
2021,07,07,09,47,4.70
2021,07,07,09,48,5.90
2021,07,07,09,49,6.90
2021,07,07,09,50,5.30
2021,07,07,09,51,7.00
2021,07,07,09,52,10.10
2021,07,07,09,53,6.40
2021,07,07,09,54,6.40
2021,07,07,09,55,7.10
2021,07,07,09,56,5.80
2021,07,07,09,57,3.60
2021,07,07,09,58,2.40
2021,07,07,09,59,1.40
2021,07,07,10,00,6.30
2021,07,07,10,01,3.70
2021,07,07,10,02,5.60
2021,07,07,10,03,5.70
2021,07,07,10,04,8.10
2021,07,07,10,05,5.80
2021,07,07,10,06,5.10
2021,07,07,10,07,5.90
2021,07,07,10,08,4.50
2021,07,07,10,09,2.90
2021,07,07,10,10,9.30
2021,07,07,10,11,6.90
2021,07,07,10,12,5.70
2021,07,07,10,13,7.40
2021,07,07,10,14,2.80
2021,07,07,10,15,5.90
2021,07,07,10,16,4.60
2021,07,07,10,17,4.40
2021,07,07,10,18,6.80
2021,07,07,10,19,5.20
2021,07,07,10,20,5.00
2021,07,07,10,21,5.70
2021,07,07,10,22,7.50
2021,07,07,10,23,5.20
2021,07,07,10,24,5.40
2021,07,07,10,25,8.30
2021,07,07,10,26,7.80
2021,07,07,10,27,5.50
2021,07,07,10,28,4.80
2021,07,07,10,29,6.70
2021,07,07,10,30,4.70
2021,07,07,10,31,5.70
2021,07,07,10,32,8.50
2021,07,07,10,33,5.20
2021,07,07,10,34,8.10
2021,07,07,10,35,10.00
2021,07,07,10,36,7.30
2021,07,07,10,37,5.20
2021,07,07,10,38,4.20
2021,07,07,10,39,3.70
2021,07,07,10,40,5.20
2021,07,07,10,41,5.00
2021,07,07,10,42,5.00
2021,07,07,10,43,4.00
2021,07,07,10,44,4.50
2021,07,07,10,45,6.70
2021,07,07,10,46,7.50
2021,07,07,10,47,7.70
2021,07,07,10,48,7.70
2021,07,07,10,49,6.70
2021,07,07,10,50,4.50
2021,07,07,10,51,6.60
2021,07,07,10,52,6.70
2021,07,07,10,53,8.10
2021,07,07,10,54,4.20
2021,07,07,10,55,7.70
2021,07,07,10,56,8.20
2021,07,07,10,57,8.60
2021,07,07,10,58,13.00
2021,07,07,10,59,9.70
2021,07,07,11,00,16.00
2021,07,07,11,01,10.30
2021,07,07,11,02,13.30
2021,07,07,11,03,9.00
2021,07,07,11,04,8.90
2021,07,07,11,05,8.80
2021,07,07,11,06,9.30
2021,07,07,11,07,6.30
2021,07,07,11,08,7.70
2021,07,07,11,09,6.70
2021,07,07,11,10,8.90
2021,07,07,11,11,8.10
2021,07,07,11,12,8.20
2021,07,07,11,13,7.30
2021,07,07,11,14,8.90
2021,07,07,11,15,11.30
2021,07,07,11,16,13.50
2021,07,07,11,17,8.90
2021,07,07,11,18,4.80
2021,07,07,11,19,8.30
2021,07,07,11,20,7.50
2021,07,07,11,21,12.40
2021,07,07,11,22,7.40
2021,07,07,11,23,11.60
2021,07,07,11,24,7.50
2021,07,07,11,25,6.60
2021,07,07,11,26,4.80
2021,07,07,11,27,6.40
2021,07,07,11,28,5.40
2021,07,07,11,29,6.90
2021,07,07,11,30,5.60
2021,07,07,11,31,9.00
2021,07,07,11,32,10.30
2021,07,07,11,33,7.70
2021,07,07,11,34,8.60
2021,07,07,11,35,6.50
2021,07,07,11,36,5.40
2021,07,07,11,37,5.60
2021,07,07,11,38,7.10
2021,07,07,11,39,8.00
2021,07,07,11,40,9.10
2021,07,07,11,41,8.80
2021,07,07,11,42,9.10
2021,07,07,11,43,9.20
2021,07,07,11,44,10.80
2021,07,07,11,45,9.40
2021,07,07,11,46,10.10
2021,07,07,11,47,8.10
2021,07,07,11,48,13.60
2021,07,07,11,49,13.60
2021,07,07,11,50,15.40
2021,07,07,11,51,17.30
2021,07,07,11,52,12.70
2021,07,07,11,53,10.70
2021,07,07,11,54,14.30
2021,07,07,11,55,16.40
2021,07,07,11,56,13.80
2021,07,07,11,57,8.70
2021,07,07,11,58,11.30
2021,07,07,11,59,13.30
2021,07,07,12,00,10.30
2021,07,07,12,01,12.70
2021,07,07,12,02,11.50
2021,07,07,12,03,13.90
2021,07,07,12,04,21.00
2021,07,07,12,05,14.60
2021,07,07,12,06,19.10
2021,07,07,12,07,18.30
2021,07,07,12,08,17.40
2021,07,07,12,09,17.00
2021,07,07,12,10,11.50
2021,07,07,12,11,12.10
2021,07,07,12,12,12.70
2021,07,07,12,13,14.50
2021,07,07,12,14,11.10
2021,07,07,12,15,9.80
2021,07,07,12,16,9.30
2021,07,07,12,17,11.40
2021,07,07,12,18,14.90
2021,07,07,12,19,14.00
2021,07,07,12,20,16.10
2021,07,07,12,21,15.40
2021,07,07,12,22,11.00
2021,07,07,12,23,8.20
2021,07,07,12,24,9.20
2021,07,07,12,25,13.80
2021,07,07,12,26,15.00
2021,07,07,12,27,12.00
2021,07,07,12,28,12.80
2021,07,07,12,29,10.60
2021,07,07,12,30,12.80
2021,07,07,12,31,16.90
2021,07,07,12,32,11.00
2021,07,07,12,33,11.20
2021,07,07,12,34,10.70
2021,07,07,12,35,13.20
2021,07,07,12,36,19.50
2021,07,07,12,37,15.10
2021,07,07,12,38,14.30
2021,07,07,12,39,17.00
2021,07,07,12,40,17.80
2021,07,07,12,41,15.90
2021,07,07,12,42,16.90
2021,07,07,12,43,16.80
2021,07,07,12,44,16.00
2021,07,07,12,45,14.20
2021,07,07,12,46,14.00
2021,07,07,12,47,16.30
2021,07,07,12,48,16.20
2021,07,07,12,49,15.10
2021,07,07,12,50,16.40
2021,07,07,12,51,16.90
2021,07,07,12,52,17.10
2021,07,07,12,53,12.40
2021,07,07,12,54,14.20
2021,07,07,12,55,15.10
2021,07,07,12,56,16.60
2021,07,07,12,57,15.30
2021,07,07,12,58,16.60
2021,07,07,12,59,16.70
2021,07,07,13,00,13.70
2021,07,07,13,01,19.60
2021,07,07,13,02,16.60
2021,07,07,13,03,17.10
2021,07,07,13,04,16.30
2021,07,07,13,05,17.70
2021,07,07,13,06,12.50
2021,07,07,13,07,17.90
2021,07,07,13,08,20.00
2021,07,07,13,09,23.80
2021,07,07,13,10,25.20
2021,07,07,13,11,18.30
2021,07,07,13,12,23.00
2021,07,07,13,13,19.20
2021,07,07,13,14,22.80
2021,07,07,13,15,23.10
2021,07,07,13,16,25.20
2021,07,07,13,17,28.00
2021,07,07,13,18,24.60
2021,07,07,13,19,18.50
2021,07,07,13,20,20.50
2021,07,07,13,21,22.20
2021,07,07,13,22,22.10
2021,07,07,13,23,25.40
2021,07,07,13,24,17.10
2021,07,07,13,25,20.40
2021,07,07,13,26,20.00
2021,07,07,13,27,24.30
2021,07,07,13,28,20.40
2021,07,07,13,29,17.20
2021,07,07,13,30,12.40
2021,07,07,13,31,22.30
2021,07,07,13,32,18.20
2021,07,07,13,33,13.80
2021,07,07,13,34,18.80
2021,07,07,13,35,23.50
2021,07,07,13,36,20.00
2021,07,07,13,37,13.40
2021,07,07,13,38,19.50
2021,07,07,13,39,20.50
2021,07,07,13,40,20.30
2021,07,07,13,41,24.90
2021,07,07,13,42,20.80
2021,07,07,13,43,21.20
2021,07,07,13,44,24.70
2021,07,07,13,45,22.00
2021,07,07,13,46,11.40
2021,07,07,13,47,15.60
2021,07,07,13,48,22.00
2021,07,07,13,49,13.20
2021,07,07,13,50,13.60
2021,07,07,13,51,14.20
2021,07,07,13,52,15.30
2021,07,07,13,53,18.80
2021,07,07,13,54,30.60
2021,07,07,13,55,19.50
2021,07,07,13,56,16.90
2021,07,07,13,57,28.40
2021,07,07,13,58,22.60
2021,07,07,13,59,26.00
2021,07,07,14,00,32.60
2021,07,07,14,01,17.60
2021,07,07,14,02,22.00
2021,07,07,14,03,30.50
2021,07,07,14,04,24.00
2021,07,07,14,05,24.90
2021,07,07,14,06,22.10
2021,07,07,14,07,20.50
2021,07,07,14,08,17.50
2021,07,07,14,09,18.50
2021,07,07,14,10,12.90
2021,07,07,14,11,24.10
2021,07,07,14,12,32.00
2021,07,07,14,13,28.80
2021,07,07,14,14,21.00
2021,07,07,14,15,18.20
2021,07,07,14,16,24.40
2021,07,07,14,17,20.50
2021,07,07,14,18,16.10
2021,07,07,14,19,17.50
2021,07,07,14,20,23.80
2021,07,07,14,21,19.60
2021,07,07,14,22,25.10
2021,07,07,14,23,24.90
2021,07,07,14,24,25.70
2021,07,07,14,25,25.60
2021,07,07,14,26,21.20
2021,07,07,14,27,15.70
2021,07,07,14,28,27.60
2021,07,07,14,29,24.10
2021,07,07,14,30,19.10
2021,07,07,14,31,15.30
2021,07,07,14,32,19.20
2021,07,07,14,33,19.00
2021,07,07,14,34,16.80
2021,07,07,14,35,12.40
2021,07,07,14,36,16.20
2021,07,07,14,37,20.00
2021,07,07,14,38,23.90
2021,07,07,14,39,15.10
2021,07,07,14,40,24.10
2021,07,07,14,41,24.80
2021,07,07,14,42,19.70
2021,07,07,14,43,19.20
2021,07,07,14,44,15.70
2021,07,07,14,45,21.20
2021,07,07,14,46,26.10
2021,07,07,14,47,21.70
2021,07,07,14,48,18.80
2021,07,07,14,49,24.60
2021,07,07,14,50,22.90
2021,07,07,14,51,22.60
2021,07,07,14,52,20.40
2021,07,07,14,53,20.70
2021,07,07,14,54,18.40
2021,07,07,14,55,13.70
2021,07,07,14,56,15.60
2021,07,07,14,57,12.00
2021,07,07,14,58,9.50
2021,07,07,14,59,12.30
2021,07,07,15,00,13.60
2021,07,07,15,01,18.10
2021,07,07,15,02,12.90
2021,07,07,15,03,15.50
2021,07,07,15,04,16.30
2021,07,07,15,05,18.40
2021,07,07,15,06,16.00
2021,07,07,15,07,15.10
2021,07,07,15,08,21.00
2021,07,07,15,09,17.50
2021,07,07,15,10,20.00
2021,07,07,15,11,20.90
2021,07,07,15,12,27.80
2021,07,07,15,13,24.40
2021,07,07,15,14,19.50
2021,07,07,15,15,21.80
2021,07,07,15,16,23.70
2021,07,07,15,17,15.90
2021,07,07,15,18,10.60
2021,07,07,15,19,8.00
2021,07,07,15,20,14.10
2021,07,07,15,21,11.90
2021,07,07,15,22,14.10
2021,07,07,15,23,20.00
2021,07,07,15,24,19.40
2021,07,07,15,25,17.00
2021,07,07,15,26,20.20
2021,07,07,15,27,11.30
2021,07,07,15,28,12.20
2021,07,07,15,29,11.00
2021,07,07,15,30,11.80
2021,07,07,15,31,10.20
2021,07,07,15,32,10.30
2021,07,07,15,33,13.50
2021,07,07,15,34,8.40
2021,07,07,15,35,9.10
2021,07,07,15,36,8.10
2021,07,07,15,37,13.40
2021,07,07,15,38,11.60
2021,07,07,15,39,9.50
2021,07,07,15,40,10.30
2021,07,07,15,41,6.90
2021,07,07,15,42,10.90
2021,07,07,15,43,6.90
2021,07,07,15,44,10.20
2021,07,07,15,45,8.90
2021,07,07,15,46,11.00
2021,07,07,15,47,9.50
2021,07,07,15,48,8.80
2021,07,07,15,49,11.80
2021,07,07,15,50,8.10
2021,07,07,15,51,11.50
2021,07,07,15,52,11.10
2021,07,07,15,53,10.40
2021,07,07,15,54,12.10
2021,07,07,15,55,14.30
2021,07,07,15,56,12.30
2021,07,07,15,57,11.70
2021,07,07,15,58,12.80
2021,07,07,15,59,10.80
2021,07,07,16,00,8.20
2021,07,07,16,01,6.40
2021,07,07,16,02,6.40
2021,07,07,16,03,8.70
2021,07,07,16,04,7.10
2021,07,07,16,05,2.90
2021,07,07,16,06,4.40
2021,07,07,16,07,3.70
2021,07,07,16,08,9.40
2021,07,07,16,09,7.50
2021,07,07,16,10,12.30
2021,07,07,16,11,12.70
2021,07,07,16,12,13.10
2021,07,07,16,13,7.30
2021,07,07,16,14,10.10
2021,07,07,16,15,8.00
2021,07,07,16,16,13.00
2021,07,07,16,17,13.60
2021,07,07,16,18,12.70
2021,07,07,16,19,12.90
2021,07,07,16,20,15.10
2021,07,07,16,21,12.90
2021,07,07,16,22,10.10
2021,07,07,16,23,11.80
2021,07,07,16,24,15.90
2021,07,07,16,25,10.40
2021,07,07,16,26,11.80
2021,07,07,16,27,8.90
2021,07,07,16,28,10.40
2021,07,07,16,29,10.40
2021,07,07,16,30,10.40
2021,07,07,16,31,13.00
2021,07,07,16,32,11.80
2021,07,07,16,33,11.00
2021,07,07,16,34,17.10
2021,07,07,16,35,13.00
2021,07,07,16,36,8.70
2021,07,07,16,37,13.90
2021,07,07,16,38,15.00
2021,07,07,16,39,10.90
2021,07,07,16,40,14.00
2021,07,07,16,41,13.00
2021,07,07,16,42,14.40
2021,07,07,16,43,13.00
2021,07,07,16,44,16.20
2021,07,07,16,45,11.70
2021,07,07,16,46,11.00
2021,07,07,16,47,11.20
2021,07,07,16,48,11.30
2021,07,07,16,49,11.90
2021,07,07,16,50,17.20
2021,07,07,16,51,10.10
2021,07,07,16,52,10.30
2021,07,07,16,53,15.20
2021,07,07,16,54,14.60
2021,07,07,16,55,13.20
2021,07,07,16,56,12.50
2021,07,07,16,57,22.10
2021,07,07,16,58,23.00
2021,07,07,16,59,17.90
2021,07,07,17,00,10.10
2021,07,07,17,01,14.90
2021,07,07,17,02,9.30
2021,07,07,17,03,11.30
2021,07,07,17,04,8.00
2021,07,07,17,05,13.70
2021,07,07,17,06,13.80
2021,07,07,17,07,10.30
2021,07,07,17,08,8.60
2021,07,07,17,09,8.10
2021,07,07,17,10,9.70
2021,07,07,17,11,8.90
2021,07,07,17,12,8.90
2021,07,07,17,13,8.40
2021,07,07,17,14,7.40
2021,07,07,17,15,12.60
2021,07,07,17,16,12.70
2021,07,07,17,17,8.30
2021,07,07,17,18,5.70
2021,07,07,17,19,10.10
2021,07,07,17,20,7.70
2021,07,07,17,21,6.90
2021,07,07,17,22,6.90
2021,07,07,17,23,3.60
2021,07,07,17,24,8.70
2021,07,07,17,25,2.90
2021,07,07,17,26,4.10
2021,07,07,17,27,8.30
2021,07,07,17,28,5.80
2021,07,07,17,29,6.00
2021,07,07,17,30,10.10
2021,07,07,17,31,9.80
2021,07,07,17,32,9.70
2021,07,07,17,33,6.70
2021,07,07,17,34,7.40
2021,07,07,17,35,10.80
2021,07,07,17,36,11.40
2021,07,07,17,37,7.70
2021,07,07,17,38,10.40
2021,07,07,17,39,9.20
2021,07,07,17,40,7.20
2021,07,07,17,41,2.60
2021,07,07,17,42,4.90
2021,07,07,17,43,4.20
2021,07,07,17,44,1.50
2021,07,07,17,45,0.00
2021,07,07,17,46,1.90
2021,07,07,17,47,0.90
2021,07,07,17,48,1.20
2021,07,07,17,49,6.90
2021,07,07,17,50,7.50
2021,07,07,17,51,10.50
2021,07,07,17,52,6.40